DLH6MG EDDF-EDDM

Flight info

Callsign DLH6MG
Flight time 0h 33m
Altitude 23000
Route CINDY8S/18 CINDY Z74 HAREM T104 ROKIL ROKIL1B
Aircraft A346/H-SDE2E3FGHIJ3J4J5M1RWXY/LB1D1

Departure

Time 2026-05-07 16:17
Airport Frankfurt Main Airport (EDDF)

Arrival

Time 2026-05-07 16:51
Airport Munich Airport (EDDM)
Time Latitude Longitude Altitude Speed Heading
2026-05-07 15:34 50.04722 8.56277 370 ft 0 kts 340°
2026-05-07 15:55 50.04711 8.56284 367 ft 4 kts 340°
2026-05-07 15:55 50.04708 8.56285 366 ft 0 kts 340°
2026-05-07 15:55 50.04708 8.56286 366 ft 0 kts 340°
2026-05-07 15:56 50.04721 8.56278 364 ft 0 kts 340°
2026-05-07 15:57 50.04714 8.56282 367 ft 4 kts 340°
2026-05-07 15:58 50.04688 8.56297 369 ft 4 kts 340°
2026-05-07 15:58 50.04663 8.56312 370 ft 4 kts 340°
2026-05-07 15:58 50.04647 8.56321 371 ft 4 kts 320°
2026-05-07 15:58 50.04643 8.56327 366 ft 4 kts 270°
2026-05-07 15:59 50.04648 8.56358 370 ft 4 kts 249°
2026-05-07 15:59 50.04658 8.56397 369 ft 4 kts 249°
2026-05-07 15:59 50.04660 8.56406 370 ft 0 kts 249°
2026-05-07 16:07 50.04660 8.56405 364 ft 1 kts 249°
2026-05-07 16:07 50.04654 8.56380 369 ft 4 kts 249°
2026-05-07 16:07 50.04639 8.56319 367 ft 8 kts 249°
2026-05-07 16:08 50.04616 8.56223 368 ft 11 kts 249°
2026-05-07 16:08 50.04585 8.56095 370 ft 14 kts 250°
2026-05-07 16:08 50.04526 8.55962 371 ft 17 kts 207°
2026-05-07 16:08 50.04405 8.55913 369 ft 17 kts 178°
2026-05-07 16:09 50.04308 8.55950 367 ft 11 kts 161°
2026-05-07 16:09 50.04253 8.55941 367 ft 10 kts 220°
2026-05-07 16:09 50.04213 8.55829 366 ft 14 kts 249°
2026-05-07 16:09 50.04175 8.55668 367 ft 18 kts 249°
2026-05-07 16:10 50.04127 8.55472 362 ft 21 kts 249°
2026-05-07 16:10 50.04074 8.55249 366 ft 23 kts 249°
2026-05-07 16:10 50.04017 8.55010 366 ft 25 kts 250°
2026-05-07 16:10 50.03954 8.54746 362 ft 27 kts 249°
2026-05-07 16:11 50.03886 8.54463 360 ft 26 kts 249°
2026-05-07 16:11 50.03806 8.54237 363 ft 25 kts 245°
2026-05-07 16:11 50.03741 8.53975 356 ft 27 kts 250°
2026-05-07 16:11 50.03673 8.53692 359 ft 29 kts 249°
2026-05-07 16:12 50.03599 8.53394 359 ft 30 kts 249°
2026-05-07 16:12 50.03530 8.53111 354 ft 23 kts 250°
2026-05-07 16:12 50.03475 8.52890 353 ft 15 kts 247°
2026-05-07 16:12 50.03462 8.52838 354 ft 0 kts 247°
2026-05-07 16:13 50.03461 8.52837 354 ft 1 kts 247°
2026-05-07 16:13 50.03454 8.52812 349 ft 4 kts 247°
2026-05-07 16:14 50.03442 8.52762 352 ft 0 kts 249°
2026-05-07 16:14 50.03441 8.52760 351 ft 1 kts 249°
2026-05-07 16:15 50.03434 8.52732 354 ft 5 kts 249°
2026-05-07 16:15 50.03418 8.52668 353 ft 8 kts 249°
2026-05-07 16:15 50.03394 8.52606 353 ft 7 kts 211°
2026-05-07 16:15 50.03378 8.52600 350 ft 0 kts 184°
2026-05-07 16:16 50.03302 8.52595 351 ft 38 kts 179°
2026-05-07 16:16 50.02792 8.52599 353 ft 107 kts 179°
2026-05-07 16:17 50.01841 8.52610 353 ft 163 kts 180°
2026-05-07 16:17 50.00605 8.52647 774 ft 178 kts 180°
2026-05-07 16:17 49.99356 8.52672 1516 ft 181 kts 180°
2026-05-07 16:17 49.98105 8.52659 2192 ft 184 kts 180°
2026-05-07 16:18 49.96817 8.52880 2713 ft 192 kts 153°
2026-05-07 16:18 49.95845 8.54335 3131 ft 203 kts 120°
2026-05-07 16:18 49.95159 8.56348 3550 ft 219 kts 116°
2026-05-07 16:18 49.94458 8.58557 3923 ft 235 kts 112°
2026-05-07 16:19 49.93999 8.61040 3986 ft 244 kts 96°
2026-05-07 16:19 49.93858 8.63784 4024 ft 264 kts 91°
2026-05-07 16:19 49.93777 8.66768 4275 ft 283 kts 92°
2026-05-07 16:19 49.93254 8.69694 5277 ft 282 kts 123°
2026-05-07 16:20 49.91907 8.71788 6450 ft 276 kts 145°
2026-05-07 16:20 49.90307 8.73507 7437 ft 280 kts 147°
2026-05-07 16:20 49.88760 8.75411 8319 ft 287 kts 135°
2026-05-07 16:20 49.87530 8.77880 9274 ft 292 kts 122°
2026-05-07 16:21 49.86504 8.80636 10171 ft 297 kts 119°
2026-05-07 16:21 49.85495 8.83501 10860 ft 309 kts 119°
2026-05-07 16:21 49.84431 8.86518 11403 ft 327 kts 119°
2026-05-07 16:21 49.83290 8.89699 11908 ft 346 kts 120°
2026-05-07 16:22 49.82081 8.93043 12415 ft 365 kts 120°
2026-05-07 16:22 49.80821 8.96509 12846 ft 383 kts 120°
2026-05-07 16:22 49.79471 9.00212 13477 ft 395 kts 120°
2026-05-07 16:22 49.78129 9.03893 14322 ft 399 kts 119°
2026-05-07 16:23 49.76852 9.07792 15161 ft 403 kts 114°
2026-05-07 16:23 49.75815 9.11895 15915 ft 409 kts 109°
2026-05-07 16:23 49.74863 9.16025 16676 ft 415 kts 112°
2026-05-07 16:23 49.73585 9.20065 17424 ft 420 kts 121°
2026-05-07 16:24 49.71878 9.23753 18195 ft 424 kts 130°
2026-05-07 16:24 49.69955 9.27248 18892 ft 428 kts 132°
2026-05-07 16:24 49.67971 9.30716 19580 ft 432 kts 133°
2026-05-07 16:24 49.65949 9.34234 20291 ft 436 kts 133°
2026-05-07 16:25 49.63931 9.37762 21003 ft 439 kts 132°
2026-05-07 16:25 49.61906 9.41318 21721 ft 443 kts 132°
2026-05-07 16:25 49.59866 9.44909 22433 ft 446 kts 132°
2026-05-07 16:25 49.57810 9.48528 22918 ft 450 kts 132°
2026-05-07 16:26 49.55736 9.52182 23060 ft 453 kts 133°
2026-05-07 16:26 49.53655 9.55832 23051 ft 453 kts 133°
2026-05-07 16:26 49.51570 9.59482 23052 ft 453 kts 133°
2026-05-07 16:26 49.50848 9.60745 23051 ft 453 kts 133°
2026-05-07 16:27 49.49065 9.63859 23053 ft 453 kts 133°
2026-05-07 16:27 49.46975 9.67504 23051 ft 453 kts 133°
2026-05-07 16:27 49.44885 9.71146 23051 ft 453 kts 133°
2026-05-07 16:27 49.44082 9.72543 23052 ft 453 kts 133°
2026-05-07 16:28 49.42015 9.76137 23050 ft 453 kts 133°
2026-05-07 16:28 49.39924 9.79768 23054 ft 453 kts 133°
2026-05-07 16:28 49.37829 9.83401 23053 ft 453 kts 133°
2026-05-07 16:28 49.35725 9.87041 23053 ft 455 kts 133°
2026-05-07 16:29 49.33617 9.90680 23054 ft 456 kts 133°
2026-05-07 16:29 49.31505 9.94320 23044 ft 457 kts 133°
2026-05-07 16:29 49.29381 9.97982 23049 ft 457 kts 133°
2026-05-07 16:29 49.27261 10.01624 23053 ft 458 kts 133°
2026-05-07 16:30 49.25137 10.05266 23050 ft 458 kts 133°
2026-05-07 16:30 49.23006 10.08915 23053 ft 458 kts 133°
2026-05-07 16:30 49.20880 10.12550 23054 ft 458 kts 133°
2026-05-07 16:30 49.18758 10.16179 23062 ft 458 kts 133°
2026-05-07 16:31 49.16627 10.19822 23066 ft 458 kts 133°
2026-05-07 16:31 49.14497 10.23456 23061 ft 459 kts 133°
2026-05-07 16:31 49.12321 10.27064 23062 ft 461 kts 134°
2026-05-07 16:31 49.10124 10.30598 23074 ft 461 kts 135°
2026-05-07 16:32 49.07906 10.34139 23076 ft 461 kts 135°
2026-05-07 16:32 49.05715 10.37637 23058 ft 461 kts 135°
2026-05-07 16:32 49.03504 10.41179 23068 ft 460 kts 135°
2026-05-07 16:32 49.01298 10.44710 23076 ft 460 kts 135°
2026-05-07 16:33 48.99085 10.48247 23079 ft 460 kts 135°
2026-05-07 16:33 48.96844 10.51819 23080 ft 460 kts 135°
2026-05-07 16:33 48.94655 10.55302 23076 ft 460 kts 135°
2026-05-07 16:33 48.92445 10.58819 23079 ft 460 kts 135°
2026-05-07 16:34 48.90223 10.62349 23072 ft 463 kts 135°
2026-05-07 16:34 48.87992 10.65892 23071 ft 463 kts 135°
2026-05-07 16:34 48.85760 10.69432 23070 ft 463 kts 135°
2026-05-07 16:34 48.83525 10.72969 23061 ft 463 kts 135°
2026-05-07 16:35 48.81292 10.76499 23055 ft 463 kts 135°
2026-05-07 16:35 48.79054 10.80026 23034 ft 463 kts 135°
2026-05-07 16:35 48.76817 10.83540 23047 ft 462 kts 136°
2026-05-07 16:35 48.74589 10.87030 23041 ft 461 kts 136°
2026-05-07 16:36 48.72352 10.90528 23035 ft 461 kts 136°
2026-05-07 16:36 48.70118 10.94019 23037 ft 461 kts 136°
2026-05-07 16:36 48.67857 10.97545 23033 ft 462 kts 136°
2026-05-07 16:36 48.65619 11.01029 22977 ft 463 kts 136°
2026-05-07 16:37 48.63376 11.04517 22571 ft 460 kts 136°
2026-05-07 16:37 48.61151 11.07973 22260 ft 457 kts 136°
2026-05-07 16:37 48.58868 11.11292 21865 ft 454 kts 140°
2026-05-07 16:37 48.56454 11.14344 21431 ft 450 kts 144°
2026-05-07 16:38 48.53930 11.17096 20954 ft 445 kts 148°
2026-05-07 16:38 48.51417 11.19836 20519 ft 442 kts 144°
2026-05-07 16:38 48.49046 11.22762 20069 ft 439 kts 141°
2026-05-07 16:38 48.46778 11.25811 19597 ft 436 kts 140°
2026-05-07 16:39 48.44564 11.28824 19161 ft 433 kts 138°
2026-05-07 16:39 48.42724 11.32402 18669 ft 431 kts 118°
2026-05-07 16:39 48.41809 11.36662 18237 ft 426 kts 98°
2026-05-07 16:39 48.41828 11.41103 17548 ft 424 kts 82°
2026-05-07 16:40 48.42217 11.45507 16913 ft 423 kts 81°
2026-05-07 16:40 48.42625 11.49891 16312 ft 421 kts 81°
2026-05-07 16:40 48.43016 11.54256 15758 ft 417 kts 82°
2026-05-07 16:40 48.43384 11.58580 15226 ft 415 kts 82°
2026-05-07 16:41 48.43737 11.62885 14694 ft 412 kts 83°
2026-05-07 16:41 48.44078 11.67152 13906 ft 407 kts 83°
2026-05-07 16:41 48.44410 11.71366 12764 ft 402 kts 83°
2026-05-07 16:41 48.44731 11.75505 11774 ft 393 kts 83°
2026-05-07 16:42 48.45039 11.79521 10738 ft 387 kts 83°
2026-05-07 16:42 48.45344 11.83515 9830 ft 378 kts 84°
2026-05-07 16:42 48.45634 11.87347 9475 ft 354 kts 83°
2026-05-07 16:42 48.45900 11.90878 9441 ft 324 kts 84°
2026-05-07 16:43 48.46147 11.94164 9089 ft 308 kts 83°
2026-05-07 16:43 48.46382 11.97317 8643 ft 298 kts 83°
2026-05-07 16:43 48.46612 12.00398 8030 ft 296 kts 83°
2026-05-07 16:43 48.46839 12.03467 7414 ft 294 kts 83°
2026-05-07 16:44 48.47065 12.06511 6834 ft 290 kts 83°
2026-05-07 16:44 48.47288 12.09509 6256 ft 288 kts 83°
2026-05-07 16:44 48.47510 12.12524 5667 ft 284 kts 82°
2026-05-07 16:44 48.47566 12.15499 5333 ft 282 kts 100°
2026-05-07 16:45 48.46828 12.18194 5018 ft 279 kts 129°
2026-05-07 16:45 48.45341 12.20018 4999 ft 277 kts 159°
2026-05-07 16:45 48.43488 12.20585 4995 ft 271 kts 187°
2026-05-07 16:45 48.41669 12.19969 4997 ft 267 kts 205°
2026-05-07 16:46 48.40180 12.18402 4973 ft 260 kts 233°
2026-05-07 16:46 48.39311 12.16054 5000 ft 257 kts 253°
2026-05-07 16:46 48.38957 12.13449 5006 ft 257 kts 266°
2026-05-07 16:46 48.38835 12.10764 4997 ft 254 kts 268°
2026-05-07 16:47 48.38708 12.08157 4883 ft 245 kts 266°
2026-05-07 16:47 48.38537 12.05618 4581 ft 241 kts 264°
2026-05-07 16:47 48.38340 12.03166 4264 ft 232 kts 265°
2026-05-07 16:47 48.38146 12.00799 3938 ft 223 kts 264°
2026-05-07 16:48 48.37962 11.98529 3667 ft 212 kts 265°
2026-05-07 16:48 48.37793 11.96384 3406 ft 201 kts 265°
2026-05-07 16:48 48.37632 11.94330 3074 ft 191 kts 265°
2026-05-07 16:48 48.37482 11.92416 2836 ft 177 kts 265°
2026-05-07 16:49 48.37345 11.90646 2601 ft 165 kts 265°
2026-05-07 16:49 48.37216 11.88969 2398 ft 159 kts 266°
2026-05-07 16:49 48.37098 11.87336 2141 ft 155 kts 264°
2026-05-07 16:49 48.36960 11.85720 1968 ft 156 kts 265°
2026-05-07 16:50 48.36833 11.84095 1780 ft 155 kts 267°
2026-05-07 16:50 48.36718 11.82503 1562 ft 154 kts 267°
2026-05-07 16:50 48.36606 11.80954 1473 ft 132 kts 262°
2026-05-07 16:50 48.36521 11.79925 1463 ft 66 kts 263°
2026-05-07 16:51 48.36486 11.79469 1474 ft 37 kts 263°
2026-05-07 16:51 48.36455 11.79079 1470 ft 36 kts 260°
2026-05-07 16:51 48.36332 11.78765 1469 ft 35 kts 232°
2026-05-07 16:51 48.36234 11.78570 1467 ft 0 kts 232°
2026-05-07 16:52 48.36229 11.78562 1468 ft 3 kts 232°
2026-05-07 16:53 48.36194 11.78522 1468 ft 8 kts 187°
2026-05-07 16:53 48.36153 11.78599 1468 ft 14 kts 96°
2026-05-07 16:53 48.36161 11.78783 1468 ft 21 kts 83°
2026-05-07 16:53 48.36180 11.79031 1471 ft 27 kts 83°
2026-05-07 16:54 48.36185 11.79256 1465 ft 18 kts 117°
2026-05-07 16:54 48.36147 11.79302 1466 ft 0 kts 159°
2026-05-07 16:55 48.36146 11.79302 1466 ft 1 kts 159°
2026-05-07 16:55 48.36131 11.79307 1465 ft 4 kts 169°
2026-05-07 16:56 48.36087 11.79317 1470 ft 7 kts 172°
2026-05-07 16:56 48.36033 11.79327 1473 ft 8 kts 173°
2026-05-07 16:56 48.35924 11.79355 1470 ft 8 kts 160°
2026-05-07 16:57 48.35871 11.79378 1465 ft 8 kts 169°
2026-05-07 16:57 48.35818 11.79390 1464 ft 8 kts 172°
2026-05-07 16:57 48.35773 11.79395 1473 ft 5 kts 192°
2026-05-07 16:57 48.35751 11.79364 1465 ft 4 kts 244°
2026-05-07 16:58 48.35744 11.79326 1471 ft 3 kts 258°
2026-05-07 16:58 48.35741 11.79293 1470 ft 3 kts 264°
2026-05-07 16:58 48.35740 11.79276 1469 ft 0 kts 264°